Probability
0 0 0 0 0 0 0 0 0 0 0 0 0 0 0 0 0 0 0 0 0 0 0 0 0 0 0 0 0 0 0 0 0 0 1 2 1 1 3 3 2 2 2 1
0 0 0 0 0 0 0 0 0 0 0 0 0 0 0 0 0 0 0 0 0 0 0 0 0 0 0 0 0 0 0 0 0 0 1 1 1 1 2 2 1 1 1 0
0 0 0 0 0 0 0 0 0 0 0 0 0 0 0 0 0 0 0 0 0 0 0 0 0 0 0 0 0 0 0 0 0 0 0 0 0 1 1 1 0 0 0 0
0 0 0 0 0 0 0 0 0 0 0 0 0 0 0 0 0 0 0 0 0 0 0 0 0 0 0 0 0 0 0 0 0 0 0 0 0 0 0 0 0 0 0 0
0 0 0 0 0 0 0 0 0 0 0 0 0 0 0 0 0 0 0 0 0 0 0 0 0 0 0 0 0 0 0 0 0 0 0 0 0 0 0 0 0 0 0 0
0 0 0 0 0 0 0 0 0 0 0 0 0 0 0 0 0 0 0 0 0 0 0 0 0 0 0 0 0 0 0 0 0 0 0 0 0 0 0 0 0 0 0 0
0 0 0 0 0 0 0 0 0 0 0 0 0 0 0 0 0 0 0 0 0 0 0 0 0 0 0 0 0 0 0 0 0 0 0 0 0 0 0 0 0 0 0 0
0 0 0 0 0 0 0 0 0 0 0 0 0 0 0 0 0 0 0 0 0 0 0 0 0 0 0 0 0 0 0 0 0 0 0 0 0 0 0 0 0 0 0 0
0 0 0 0 0 0 0 0 0 0 0 0 0 0 0 0 0 0 0 0 0 0 0 0 0 0 0 0 0 0 0 0 0 0 0 0 0 0 0 0 0 0 0 0
0 0 0 0 0 0 0 0 0 0 0 0 0 0 0 0 0 0 0 0 0 0 0 0 0 0 0 0 0 0 0 0 0 0 0 0 0 0 0 0 0 0 0 0
0 0 0 0 0 0 0 0 0 0 0 0 0 0 0 0 0 0 0 0 0 0 0 0 0 0 0 0 0 0 0 0 0 0 0 0 0 0 0 0 0 0 0 0
0 0 0 0 0 0 0 0 0 0 0 0 0 0 0 0 0 0 0 0 0 0 0 0 0 0 0 0 0 0 0 0 0 0 0 0 0 0 0 0 0 0 0 0
0 0 0 0 0 0 0 0 0 0 0 0 0 0 0 0 0 0 0 0 0 0 0 0 0 0 0 0 0 0 0 0 0 0 0 0 0 0 0 0 0 0 0 0
0 0 0 0 0 0 0 0 0 0 0 0 0 0 0 0 0 0 0 0 0 0 0 0 0 0 0 0 0 0 0 0 0 0 0 0 0 0 0 0 0 0 0 0
0 0 0 0 0 0 0 0 0 0 0 0 0 0 0 0 0 0 0 0 0 0 0 0 0 0 0 0 0 0 0 0 0 0 0 0 0 0 0 0 0 0 0 0
0 0 0 0 0 0 0 0 0 0 0 0 0 0 0 0 0 0 0 0 0 0 0 0 0 0 0 0 0 0 0 0 0 0 0 0 0 0 0 0 0 0 0 0
0 0 0 0 0 0 0 0 0 0 0 0 0 0 0 0 0 0 0 0 0 0 0 0 0 0 0 0 0 0 0 0 0 0 0 0 0 0 0 0 0 0 0 0
0 0 0 0 0 0 0 0 0 0 0 0 0 0 0 0 0 0 0 0 0 0 0 0 0 0 0 0 0 0 0 0 0 0 0 0 0 0 0 0 0 0 0 0
0 0 0 0 0 0 0 0 0 0 0 0 0 0 0 0 0 0 0 0 0 0 0 0 0 0 0 0 0 0 0 0 0 0 0 0 0 0 0 0 0 0 0 0
0 0 0 0 0 0 0 0 0 0 0 0 0 0 0 0 0 0 0 0 0 0 0 0 0 0 0 0 0 0 0 0 0 0 0 0 0 0 0 0 0 0 0 0
0 0 0 0 0 0 0 0 0 0 0 0 0 0 0 0 0 0 0 0 0 0 0 0 0 0 0 0 0 0 0 0 0 0 0 0 0 0 0 0 0 0 0 0
0 0 0 0 0 0 0 0 0 0 0 0 0 0 0 0 0 0 0 0 0 0 0 0 0 0 0 0 0 0 0 0 0 0 0 0 0 0 0 0 0 0 0 0
0 0 0 0 0 0 0 0 0 0 0 0 0 0 0 0 0 0 0 0 0 0 0 0 0 0 0 0 0 0 0 0 0 0 0 0 0 0 0 0 0 0 0 0
0 0 0 0 0 0 0 0 0 0 0 0 0 0 0 0 0 0 0 0 0 0 0 0 0 0 0 0 0 0 0 0 0 0 0 0 0 0 0 0 0 0 0 0
0 0 0 0 0 0 0 0 0 0 0 0 0 0 0 0 0 0 0 0 0 0 0 0 0 0 0 0 0 0 0 0 0 0 0 0 0 0 0 0 0 0 0 0
0 0 0 0 0 0 0 0 0 0 0 0 0 0 0 0 0 0 0 0 0 0 0 0 0 0 0 0 0 0 0 0 0 0 0 0 0 0 0 0 0 0 0 0
0 0 0 0 0 0 0 0 0 0 0 0 0 0 0 0 0 0 0 0 0 0 0 0 0 0 0 0 0 0 0 0 0 0 0 0 0 0 0 0 0 0 0 0
Wind_Speed
6 6 5 7 9 9 11 11 10 11 13 12 9 8 8 7 7 7 6 5 5 5 5 5 5 4 4 4 4 3 2 2 2 2 2 2 1 1 1 1 1 1 1 1
6 5 5 7 9 10 11 12 13 14 15 10 8 7 8 8 8 7 7 6 6 6 6 5 5 5 4 4 4 3 2 2 2 2 1 1 1 1 1 1 1 1 1 1
5 6 5 8 8 9 8 9 10 12 11 8 8 8 9 10 8 7 7 7 7 7 6 5 5 5 5 4 3 3 2 2 2 1 1 1 1 1 1 1 1 2 1 1
3 2 6 4 3 6 8 8 8 8 8 8 9 10 10 9 8 8 9 8 8 7 7 6 5 5 4 4 3 3 3 3 2 2 1 0 0 1 0 0 1 1 1 1
2 4 7 7 4 3 5 8 6 7 8 9 9 8 8 5 6 8 9 8 8 7 6 6 5 4 4 3 3 3 3 3 3 2 1 1 1 1 1 1 1 1 1 1
3 5 7 4 2 3 4 7 3 5 7 8 7 8 8 7 9 10 9 7 6 5 5 5 5 4 3 4 4 4 4 4 3 2 2 2 2 1 1 1 1 1 1 1
6 7 8 7 4 2 4 4 4 5 7 8 8 10 11 11 10 9 8 7 6 5 5 5 4 3 4 5 5 4 3 3 3 2 2 2 2 1 1 1 1 1 2 2
5 7 8 2 2 4 5 5 5 7 7 9 10 11 11 11 10 9 8 7 6 5 5 4 3 3 5 5 4 3 3 3 3 2 2 1 1 1 2 2 2 2 2 2
7 8 4 2 5 5 4 6 7 7 9 9 10 11 11 11 10 8 7 6 5 5 6 5 3 3 5 5 3 3 3 3 2 2 1 1 2 2 2 2 2 2 2 2
8 10 9 8 7 7 7 8 9 9 10 10 11 11 11 10 9 8 6 5 4 4 5 5 4 4 4 4 3 2 3 3 2 2 2 2 2 2 3 3 3 3 3 2
10 10 8 8 7 8 8 8 9 9 9 9 10 11 11 9 8 7 6 5 4 4 5 6 5 5 4 3 2 3 3 3 2 2 2 2 2 2 3 3 3 4 3 3
10 7 7 8 5 5 6 8 8 8 9 7 8 9 9 8 7 6 5 5 4 5 5 6 5 5 4 3 3 3 3 3 2 2 2 2 2 1 1 2 3 4 4 3
9 7 8 9 7 5 6 7 7 6 8 8 6 6 7 7 6 5 5 5 5 5 5 5 5 6 4 3 3 4 4 4 2 2 3 3 2 2 2 1 2 3 3 3
7 6 7 6 6 5 5 5 5 5 5 5 6 5 5 5 5 5 6 5 5 5 5 5 5 6 4 3 3 4 4 3 3 3 3 3 3 3 3 3 2 2 2 3
7 6 8 6 4 3 3 4 5 6 5 5 4 5 5 5 6 6 6 4 4 4 5 4 5 6 3 3 3 4 3 3 3 3 3 3 3 3 3 3 3 2 2 3
4 3 4 5 6 5 4 4 5 7 6 6 5 5 5 5 6 6 5 4 4 6 5 5 6 5 3 3 3 3 3 4 3 3 3 3 3 3 3 3 3 3 3 3
3 4 4 4 5 5 5 5 5 7 6 7 7 6 5 5 5 6 5 4 5 6 6 6 6 4 3 3 3 3 3 3 3 3 3 3 4 4 4 4 4 4 3 4
4 4 4 5 5 6 6 5 5 6 6 6 6 5 5 5 6 7 6 5 5 6 6 5 5 4 3 3 3 3 3 3 3 3 3 3 4 3 4 4 4 4 3 3
3 4 4 4 4 4 5 5 5 5 6 5 5 6 6 6 6 6 5 5 5 7 5 3 5 4 4 4 3 3 3 3 3 3 3 4 4 4 4 4 4 4 4 4
3 3 3 3 3 3 4 5 5 5 5 4 5 5 6 6 5 5 5 6 5 5 5 5 5 4 4 4 4 3 3 3 4 3 3 4 4 4 4 4 4 4 4 4
4 3 3 3 4 4 4 4 4 5 5 4 5 6 7 7 5 4 5 6 4 3 4 4 4 4 4 3 3 3 3 3 4 4 4 4 4 4 4 5 4 4 4 4
3 3 3 3 4 4 4 3 4 5 5 5 5 5 6 7 6 5 6 6 5 4 4 4 4 4 5 4 3 3 3 3 3 3 4 4 4 4 4 5 4 4 4 4
2 3 3 3 4 5 5 4 4 4 5 5 6 6 6 6 5 5 6 3 4 5 5 4 5 6 6 4 3 3 3 4 4 4 4 4 4 4 4 5 4 4 4 4
2 2 3 2 2 3 5 5 4 4 5 6 5 6 6 5 5 4 5 5 6 6 5 6 7 6 5 3 3 3 3 3 3 3 4 4 4 4 4 4 4 4 5 5
2 2 2 2 3 4 5 5 5 5 5 4 5 5 4 4 5 5 5 6 7 6 5 5 6 5 3 3 3 3 3 3 3 3 3 4 4 4 4 4 5 5 5 5
2 2 3 3 4 4 3 3 4 4 4 5 5 4 4 3 4 5 4 5 6 5 5 4 4 4 3 3 3 3 3 3 3 4 4 4 4 4 4 5 6 5 5 5
2 2 2 3 3 3 3 3 4 4 4 4 5 5 4 4 4 4 5 4 4 4 4 3 3 3 3 3 3 3 3 3 3 3 4 4 4 4 4 5 5 4 4 5
Wind_Direction
271 280 265 263 255 238 231 235 243 256 263 273 285 293 302 308 313 318 320 323 326 328 329 330 331 329 328 328 331 337 343 341 338 343 351 358 5 9 32 62 93 127 146 162
270 278 275 272 267 253 244 242 244 257 266 281 284 286 297 305 306 306 310 316 320 322 323 321 320 316 312 311 314 314 314 316 324 335 358 19 13 2 31 66 83 100 123 145
270 294 276 260 252 241 241 242 244 253 268 289 291 293 295 298 296 293 302 309 311 311 310 308 308 303 299 299 301 298 300 306 311 315 329 355 29 41 40 55 82 89 96 108
285 289 244 257 278 253 250 258 251 257 278 287 290 294 292 289 289 296 302 301 301 304 304 306 305 305 306 304 296 289 292 297 303 298 293 320 76 99 60 84 120 114 106 102
241 262 273 283 267 245 251 266 260 267 288 302 310 301 288 288 300 298 297 293 293 297 300 302 302 307 305 297 292 289 290 291 294 284 265 244 222 206 198 163 141 110 106 106
226 248 256 269 293 282 258 264 288 296 302 308 312 298 299 314 311 305 303 299 298 300 300 296 303 307 294 287 284 281 287 289 286 274 255 243 232 220 203 162 159 127 111 108
231 248 264 272 277 231 235 285 317 300 297 297 286 285 298 307 305 302 299 298 296 290 287 289 296 288 280 281 278 288 298 289 276 266 255 242 228 199 174 157 143 136 121 105
215 231 253 238 180 226 277 307 301 301 301 296 290 292 293 297 300 301 299 297 296 295 296 303 297 278 279 280 293 302 292 279 271 263 254 229 205 187 170 160 154 149 133 114
218 236 273 235 238 264 286 288 294 297 300 297 294 294 297 297 296 297 296 298 302 297 298 301 295 275 274 289 305 300 287 271 266 259 236 212 204 189 174 173 176 173 165 158
255 260 263 265 267 273 279 280 288 290 293 293 290 293 296 296 295 295 298 299 300 295 292 297 302 293 283 288 285 271 263 261 253 240 228 213 210 199 192 190 188 182 179 174
253 268 281 267 262 272 280 285 287 290 288 286 286 287 290 293 295 296 299 302 297 287 287 292 299 294 292 280 263 259 260 254 249 239 226 216 214 211 214 216 203 194 190 182
248 249 250 270 280 280 278 283 288 293 291 287 282 284 290 290 294 296 294 297 294 289 288 292 296 292 286 268 244 237 245 242 237 236 226 212 201 192 187 197 188 190 187 182
250 269 263 272 279 283 280 286 292 290 287 294 297 293 293 292 296 295 290 284 280 282 285 289 290 287 285 268 245 232 236 239 235 230 221 209 196 187 178 130 138 153 160 166
250 264 266 264 271 290 291 296 303 297 293 295 298 301 296 294 296 293 289 290 291 289 287 285 283 282 286 271 252 244 242 238 231 227 217 208 201 198 193 185 180 173 164 161
247 249 255 276 288 298 307 309 304 298 303 302 298 294 294 292 292 294 300 304 299 289 284 283 282 285 290 269 252 244 243 236 227 223 211 203 200 200 197 191 187 177 164 165
268 263 258 264 275 292 301 297 291 295 303 301 300 298 296 291 292 293 295 291 285 288 290 286 281 286 288 272 260 252 244 234 227 215 203 195 194 194 194 191 187 184 185 179
240 256 255 266 277 287 284 282 281 287 295 293 293 298 301 298 295 292 293 290 283 283 285 279 281 288 279 262 253 253 247 231 213 211 206 199 195 196 195 194 194 195 199 193
235 246 243 249 262 277 286 290 285 287 286 289 296 293 287 283 286 292 298 302 300 294 286 280 282 285 277 267 255 250 240 230 220 215 209 201 199 199 199 199 197 197 194 194
233 241 248 252 254 259 269 278 284 286 291 294 291 286 283 279 279 285 291 290 288 291 294 294 297 303 292 280 273 254 238 230 225 218 211 199 200 202 201 201 201 199 194 193
235 240 248 261 260 247 262 275 283 287 289 289 286 286 286 285 283 285 285 277 270 275 293 299 293 289 285 277 277 262 243 231 225 219 212 207 204 202 201 202 202 201 201 203
235 238 247 261 272 265 261 271 277 284 291 283 274 278 283 289 286 279 280 286 287 289 295 287 283 286 284 279 268 256 242 233 226 221 215 211 207 204 204 204 204 205 205 204
226 234 249 259 271 282 283 277 272 278 287 286 277 275 281 286 286 277 256 260 287 299 296 286 283 282 281 277 267 256 247 240 233 223 217 213 211 210 209 207 207 208 209 208
228 235 250 258 269 285 296 287 279 280 282 285 284 280 278 279 280 279 285 282 292 293 291 283 285 283 279 271 264 256 251 244 237 228 221 217 216 216 214 212 212 210 210 210
235 243 258 272 279 284 290 295 294 286 281 284 280 273 273 281 280 261 271 288 290 289 285 281 282 284 282 272 262 256 253 249 243 235 227 222 219 217 216 215 215 215 214 213
243 254 253 261 269 274 284 298 300 295 294 291 290 286 273 264 268 286 291 287 287 288 286 284 285 284 278 270 264 260 256 252 249 242 234 229 224 221 220 218 217 216 215 214
244 261 264 261 262 273 282 286 289 295 300 300 299 295 292 285 279 282 284 285 283 282 282 283 279 273 269 267 266 264 262 258 252 245 241 237 232 229 227 224 223 222 220 217
260 263 268 273 267 264 271 275 278 284 287 287 292 296 299 297 291 291 292 291 290 287 286 284 280 275 272 271 269 267 265 261 256 252 248 243 238 234 231 229 228 225 222 219